User: anonymous   Login
Location: Unspecified
(40.7945°N, 0.0000°E)
Time: 05:44:05
(UTC+00:00)
Language:

AIST 2D - Orbit

View from above orbital plane
View from above orbital plane
View from above satellite
View from above satellite

Ground track
Ground track

The orbit data is extracted from the following two-line orbital elements,

1 41465U 16026B   19199.78638149  .00000827  00000-0  27553-4 0  9993
2 41465  97.1879  94.3362 0011965  21.9079  63.8032 15.33826814180114
Epoch (UTC): 18 July 2019 18:52:23
Eccentricity: 0.0011965
inclination: 97.1879°
perigee height: 456 km
apogee height: 472 km
right ascension of ascending node: 94.3362°
argument of perigee: 21.9079°
revolutions per day: 15.33826814
mean anomaly at epoch: 63.8032°
orbit number at epoch: 18011

The dashed part of the orbit path shows where the satellite is in the earth's shadow,  

DLR